weather.gov     
National Weather Service

Regional Weather Roundup
NWS Homepage
This page is being discontinued on March 12, 2014.
The same data is available at this site. Please update your bookmarks.
Thank you, and we apologize for the inconvenience.
Please send an email to SR-SRH.Webmaster@noaa.gov with any concerns.


Current Version
Previous Version:    01  02  03  04  05  06  07  08  09  10  11  12  13  14  15  16  17  18  19  20  21  22  23  24  25  26  
[Printable]
024
ASUS42 KTBW 201010
RWRFL
FLORIDA REGIONAL WEATHER ROUNDUP
NATIONAL WEATHER SERVICE TAMPA BAY RUSKIN FL
600 AM EDT SUN APR 20 2014

NOTE: "FAIR" INDICATES FEW OR NO CLOUDS BELOW 12,000 FEET WITH NO
SIGNIFICANT WEATHER AND/OR OBSTRUCTIONS TO VISIBILITY.


FLZ001>010-012>015-112-114-115-201100-
PANHANDLE FLORIDA

CITY           SKY/WX    TMP DP  RH WIND       PRES   REMARKS
PENSACOLA      CLEAR     58  52  80 CALM      30.11R
PENSACOLA NAS  CLEAR     58  53  84 NE5       30.12R
MILTON NAS     CLEAR     53  50  89 N3        30.11R
CRESTVIEW      CLEAR     53  51  93 CALM      30.11S
DUKE FIELD     FAIR      54  53  94 N5        30.10R
VALPARAISO     PTCLDY    56  53  91 NE8       30.09R
MARY ESTHER    CLEAR     56  50  80 NE8       30.08R
PANAMA CITY    CLOUDY    58  52  80 NE3       30.08R
TYNDALL AFB    CLOUDY    58  52  80 NE9       30.09R
APALACHICOLA   CLOUDY    61  53  75 N10       30.07R

STATION/POSITION SKY/WX   TEMP    WIND        PRES    WAVE   SWELL
                          AIR SEA DIR/SP/G            HT/PER HT/PER
                          (F)     (DEG/KT/KT) (MB)    (FT/S) (FT/S)
30.1N   87.6W              63 66   40/ 10/ 14 1019.7R   2/ 4
29.2N   88.2W              67 70   40/  8/ 10 1019.6R
28.8N   86.0W              63 67   40/ 12/ 16 1018.6R   4/ 5
PANAMA CITY BEAC           58 66   40/  6/ 11 1018.4R
CAPE SAN BLAS    NOT AVBL
TOWER C                    60      10/ 13/ 15 1017.8R
28.5N   84.5W              62 68   40/ 14/ 16 1017.2R   4/ 6

$$
FLZ011-016>038-118-127-128-134-139-239-201100-
NORTH FLORIDA

CITY           SKY/WX    TMP DP  RH WIND       PRES   REMARKS
MARIANNA       CLOUDY    56  54  93 NE9       30.08S
TALLAHASSEE    CLOUDY    58  51  78 N5        30.07S
PERRY          CLOUDY    55  55 100 NE6       30.06R FOG
CROSS CITY       N/A     58  55  90 N7        30.05R
GAINESVILLE    CLOUDY    57  56  96 N9        30.03R
MAYPORT NAS    CLOUDY    58  54  86 N9        30.01R
JACKSONVILLE   CLOUDY    55  54  96 N12       30.02R
JAX NAS        LGT RAIN  59  55  87 N18       30.02R
JAX CRAIG      CLOUDY    59  55  87 N12       30.01R
JAX CECIL      LGT RAIN  55  54  94 N9        30.03R
FERNANDINA BEA CLOUDY    57  54  88 N7G17     30.01R
ST AUGUSTINE   CLOUDY    60  57  89 N14       30.01R

STATION/POSITION SKY/WX   TEMP    WIND        PRES    WAVE   SWELL
                          AIR SEA DIR/SP/G            HT/PER HT/PER
                          (F)     (DEG/KT/KT) (MB)    (FT/S) (FT/S)
SHELL POINT                58      20/  5/ 10 1016.5R
KEATON BEACH               57      30/  4/  5 1017.8R
CEDAR KEY                  58      40/  6/  8 1017.6R
FERNANDINA                 57 65  350/ 17/ 18 1015.7R
30.7N   81.3W                 64                N/A     6/ 6   2/11
MAYPORT                    57 66  360/ 11/ 14   N/A
31.4N   80.9W              57 63   10/ 21/ 25 1015.4R   6/ 6   2/10
ST AUGUSTINE               60     360/ 21/ 24 1016.1R

$$
FLZ040-043>046-052-053-057-058-063-144-201100-
INTERIOR CENTRAL FLORIDA

CITY           SKY/WX    TMP DP  RH WIND       PRES   REMARKS
OCALA          CLOUDY    59  54  82 N10       30.03R
THE VILLAGES     N/A     61  59  94 NW7       30.01R
LEESBURG       CLOUDY    62  60  93 N8        30.01R
SANFORD        CLOUDY    62  59  90 N10       29.98R
ORLANDO EXEC   CLOUDY    63  60  90 N9        29.98R
ORLANDO INTL   MOCLDY    63  60  90 N10       29.99R
WINTER HAVEN   CLOUDY    61  59  93 NW8       30.01R FOG
LAKELAND       CLOUDY    61  61 100 NW6       30.00R FOG
BARTOW         CLOUDY    61  61 100 NW8       30.00R
OKEECHOBEE     CLOUDY    61  57  88 NW7       29.99R

$$
FLZ041-047-054-059-064-141-147-201100-
EAST CENTRAL FLORIDA

CITY           SKY/WX    TMP DP  RH WIND       PRES   REMARKS
DAYTONA BEACH  CLOUDY    63  58  83 N13       29.98R
DELAND         CLOUDY    61  57  88 N10       30.01R
JFK SPACE CTR  CLOUDY    63  60  88 N7        29.95R
CAPE CANAVERAL PTCLDY    65  61  86 N15       29.94R
PATRICK AFB    CLOUDY    64  63  94 N15G22    29.96R
MELBOURNE      CLOUDY    63  60  90 W8        29.95R
VERO BEACH     CLOUDY    62  59  90 W9        29.96R
FT PIERCE      CLOUDY    62  57  83 W8        29.96R
STUART         MOCLDY    61  55  82 W9        29.97R

STATION/POSITION SKY/WX   TEMP    WIND        PRES    WAVE   SWELL
                          AIR SEA DIR/SP/G            HT/PER HT/PER
                          (F)     (DEG/KT/KT) (MB)    (FT/S) (FT/S)
28.5N   80.2W              67 71  330/ 21/ 25 1012.5F
28.9N   78.5W              72 76  260/ 12/ 14 1012.4R   6/ 8   5/ 8
TRIDENT PIER               65 74  330/ 12/ 16 1013.4R
28.4N   80.5W                 73                N/A     2/10
27.6N   80.2W                 73                N/A     4/10   2/11

$$
FLZ050-056-061-142-242-148-248-149-249-151-251-155-255-
160-260-201100-
WEST CENTRAL FLORIDA

CITY           SKY/WX    TMP DP  RH WIND       PRES   REMARKS
CRYSTAL RIVER  CLOUDY    59  57  94 NW6       30.03R
INVERNESS      CLOUDY    59  57  94 N3        30.03R
BROOKSVILLE    CLOUDY    60  57  89 N7        30.03R
CLEARWATER     CLOUDY    63  59  87 N9        30.01R
TAMPA INTL     CLOUDY    61  58  90 N10       30.02R
TAMPA EXEC     CLOUDY    63  59  88 NW5       30.02R
PLANT CITY     CLOUDY    63 N/A N/A NW6       30.02S
MACDILL AFB    MOCLDY    62  61  97 N10       30.01R
PETER O KNIGHT CLOUDY    64  61  88 N7        30.01R
ST PETERSBURG  CLOUDY    65  62  90 N7        29.99R
SARASOTA       CLOUDY    63  60  90 CALM      29.99R
VENICE           N/A     63  59  88 N3        30.01R

STATION/POSITION SKY/WX   TEMP    WIND        PRES    WAVE   SWELL
                          AIR SEA DIR/SP/G            HT/PER HT/PER
                          (F)     (DEG/KT/KT) (MB)    (FT/S) (FT/S)
CEDAR KEY                  58      40/  6/  8 1017.6R
28.5N   84.5W              62 68   40/ 14/ 16 1017.2R   4/ 6
27.3N   84.3W                 72                N/A     5/ 7
CLEARWATER BEACH           65 70  360/ 11/ 14 1015.6R
MIDDLE TAMPA BAY           64      10/ 11/ 14 1016.0R
VENICE                     64 73   10/  4/  5 1015.4R

$$
FLZ066-069-070-075>078-162-262-165-265-201100-
SOUTHWEST FLORIDA AND KEYS

CITY           SKY/WX    TMP DP  RH WIND       PRES   REMARKS
PUNTA GORDA    CLEAR     63  58  83 CALM      30.01R
FT MYERS       MOCLDY    64  58  80 NW6       29.99R
SOUTHWEST INTL CLOUDY    63  58  83 NW3       29.99R
NAPLES         MOCLDY    66  60  81 N7        29.99R
MARATHON       MOCLDY    73  59  61 W13G20    29.98S
KEY WEST NAS   MOCLDY    72  60  66 NW10      29.99S
KEY WEST INTL  CLOUDY    72  62  71 NW13      30.00R

STATION/POSITION SKY/WX   TEMP    WIND        PRES    WAVE   SWELL
                          AIR SEA DIR/SP/G            HT/PER HT/PER
                          (F)     (DEG/KT/KT) (MB)    (FT/S) (FT/S)
VENICE                     64 73   10/  4/  5 1015.4R
NAPLES                     67 75  330/ 12/ 13 1015.5S
26.0N   85.6W              70 80   20/ 12/ 17 1017.3R   5/ 7
DRY TORTUGAS     NOT AVBL
NW FL BAY                  74     320/ 14/ 17 1015.2R
SOMBRERO KEY               72     290/ 17/ 18 1015.8S
LONG KEY                   73 79  300/ 16/ 19 1015.8F
MOLASSES REEF              71 78  330/ 12/ 13 1014.8R

$$
FLZ067-068-071>074-168-172>174-201100-
SOUTHEAST FLORIDA

CITY           SKY/WX    TMP DP  RH WIND       PRES   REMARKS
W PALM BEACH   MOCLDY    65  55  70 W13       29.95R
FT LAUDER-EXEC CLOUDY    65  57  75 W13       29.96R
FT LAUDERDALE  MOCLDY    67  57  70 NW10      29.96R
POMPANO BEACH  CLOUDY    66  58  75 W9        29.96R
PEMBROKE PINES MOCLDY    65  58  78 NW16      29.98R
OPA LOCKA      PTCLDY    65  58  78 N12       29.97R
MIAMI          MOCLDY    67  59  75 NW7       29.98R
WEST KENDALL   CLOUDY    64  62  93 W6        29.98R
HOMESTEAD      MOCLDY    64  58  80 W5        29.98R

STATION/POSITION SKY/WX   TEMP    WIND        PRES    WAVE   SWELL
                          AIR SEA DIR/SP/G            HT/PER HT/PER
                          (F)     (DEG/KT/KT) (MB)    (FT/S) (FT/S)
PORT EVERGLADES            67     270/ 10/ 16 1014.5
VIRGINIA KEY               68 79  310/  4/  9 1014.8R
LAKE WORTH                 66 74  280/  7/ 11 1013.9R
FOWEY ROCKS                69 77  300/ 11/ 12 1015.0R
SETTLEMENT POINT           69     280/ 17/ 20 1014.6R

$$





U.S. Dept. of Commerce
NOAA National Weather Service
1325 East West Highway
Silver Spring, MD 20910
E-mail: w-nws.webmaster@noaa.gov
Page last modified: May 16, 2007
NATIONAL WEATHER SERVICE: for Safety, for Work, for Fun - FOR LIFE